TimeHST,TemperatureF,Dew PointF,Humidity,Sea Level PressureIn,VisibilityMPH,Wind Direction,Wind SpeedMPH,Gust SpeedMPH,PrecipitationIn,Events,Conditions,WindDirDegrees,DateUTC
12:57 AM,77.0,71.1,82,29.93,10.0,SSE,6.9,-,N/A,,Mostly Cloudy,160,2013-07-30 10:57:00
1:04 AM,77.0,71.6,83,29.94,6.2,SSE,5.8,-,N/A,,Mostly Cloudy,160,2013-07-30 11:04:00
1:57 AM,77.0,71.1,82,29.92,10.0,SSE,10.4,17.3,N/A,,Mostly Cloudy,150,2013-07-30 11:57:00
2:04 AM,77.0,69.8,78,29.94,6.2,SSE,9.2,17.3,N/A,,Mostly Cloudy,150,2013-07-30 12:04:00
2:57 AM,77.0,70.0,79,29.93,10.0,SSE,11.5,19.6,N/A,,Mostly Cloudy,150,2013-07-30 12:57:00
3:57 AM,80.6,72.0,75,29.94,10.0,SSE,11.5,18.4,0.00,,Mostly Cloudy,150,2013-07-30 13:57:00
4:57 AM,80.6,73.0,78,29.96,10.0,SE,11.5,19.6,N/A,,Mostly Cloudy,130,2013-07-30 14:57:00
6:57 AM,80.6,73.0,78,30.01,10.0,SE,5.8,-,0.00,Rain,Light Rain,130,2013-07-30 16:57:00
8:57 AM,80.6,75.0,83,30.05,10.0,ESE,10.4,-,0.00,,Mostly Cloudy,110,2013-07-30 18:57:00
9:04 AM,82.4,75.2,79,30.07,6.2,East,9.2,-,N/A,,Mostly Cloudy,100,2013-07-30 19:04:00
9:39 AM,82.4,75.2,79,30.08,6.2,SE,6.9,17.3,0.15,Rain,Light Rain,130,2013-07-30 19:39:00
10:57 AM,82.4,75.9,81,30.07,10.0,East,9.2,-,N/A,,Scattered Clouds,100,2013-07-30 20:57:00
12:57 PM,86.0,75.0,70,30.06,10.0,East,12.7,20.7,N/A,,Partly Cloudy,80,2013-07-30 22:57:00
1:57 PM,86.0,73.0,65,30.05,10.0,ENE,10.4,19.6,N/A,,Overcast,70,2013-07-30 23:57:00
2:57 PM,84.2,73.0,69,30.06,10.0,East,8.1,17.3,N/A,,Mostly Cloudy,80,2013-07-31 00:57:00
4:57 PM,82.4,73.0,73,30.05,10.0,East,8.1,18.4,N/A,,Overcast,80,2013-07-31 02:57:00
5:00 PM,-9999,-9999,N/A,-9999,-9999.0,North,-9999.0,-,N/A,,Unknown,0,2013-07-31 03:00:00
5:57 PM,80.6,72.0,75,30.05,10.0,East,6.9,-,N/A,,Overcast,80,2013-07-31 03:57:00
6:32 PM,78.8,71.6,78,30.07,6.2,East,8.1,21.9,N/A,,Mostly Cloudy,80,2013-07-31 04:32:00
6:57 PM,78.8,72.0,79,30.07,10.0,East,8.1,16.1,N/A,,Mostly Cloudy,80,2013-07-31 04:57:00
7:57 PM,78.8,73.0,82,30.09,10.0,East,9.2,-,N/A,,Scattered Clouds,100,2013-07-31 05:57:00
8:15 PM,78.8,71.6,78,30.11,6.2,ENE,9.2,-,N/A,,Mostly Cloudy,70,2013-07-31 06:15:00
8:57 PM,78.8,72.0,79,30.12,10.0,East,6.9,-,N/A,,Mostly Cloudy,80,2013-07-31 06:57:00
10:50 PM,73.4,73.4,100,30.14,6.2,East,9.2,-,N/A,,Mostly Cloudy,80,2013-07-31 08:50:00
10:57 PM,73.4,73.0,99,30.12,10.0,East,11.5,17.3,N/A,,Mostly Cloudy,80,2013-07-31 08:57:00
11:57 PM,73.4,73.0,99,30.11,10.0,ENE,9.2,-,N/A,,Mostly Cloudy,70,2013-07-31 09:57:00